Showing default

LIZZIESAT-3 (LS-3), 63233

Orbit data source: Space-Track

LIZZIESAT-3 (LS-3), 63233 is a payload satellite owned by Sidus Space (US) in SSO that was launched on Sat, 15 Mar 2025 UTC via an FALCON 9 launch vehicle from the Air Force Western Test Range (AFWTR). Payload-class satellites include a variety of spacecraft equipped with specific instruments for various scientific and technological missions. These include communications satellites like Starlink; space stations such as the ISS; scientific satellites like the Hubble; Earth observation satellites from companies like Planet Labs, Umbra, and HawkEye 360; GPS; miniature CubeSats for education and research; and military/defense satellites.

Loading next visibility...
Identifier
63233, 2025-052Z
Orbit
SSO
Country
Flag of USUS
Related business
Manufacturer
Sidus Space
Mission
Operational Commercial Technology
Bus & Motor
LIZZIESAT, Unknown motor
Mass
~100 kg wet, ~100 kg dry
Launch date (UTC)
2025-03-15 (7 months ago)
Launch vehicle
FALCON 9
Launch site
Air Force Western Test Range (AFWTR)
Object type
Payload
Rocket body
Debris
Shape & HBR
Oct Cyl + 8 Pan, 0.5 m
Radar Cross Section
1.008 m², Medium (>0.1 m² and < 1m²)

Expand to show TLE details & history
Last TLE update: 1 day ago

TLE from 1 day ago
0 LIZZIESAT-3 (LS-3)
1 63233U 25052Z   25286.66348515  .00006647  00000-0  32588-3 0  9994
2 63233  97.4142 177.9462 0004962 319.0326  41.0534 15.18446964 32355
Epoch: 2025-10-13T15:55Z
TLE epoch observation values (Epoch: 2025-10-13T15:55:25.116Z)
Latitude
-0.00015°
Longitude
-83.37146°
Altitude
511.044 km
Speed
7.61 km/s
True Right ascension
11h 51m 47s
True Declination
0° 00' 01"
Sunlit
Object was in daylight at epoch
Visualization orbit readout
Latitude
Unknown
Longitude
Unknown
Altitude
Unknown
Speed
Unknown
Apparent Right ascension
Unknown
Apparent Declination
Unknown
Sunlit
N/A
Visualization observer readout
Local Sidereal Time
11:57:55
Azimuth
Unknown
Elevation
Unknown
Doppler factor
Unknown
Orbital elements
Apogee altitude
510.919 km
Perigee altitude
504.085 km
Semi-major axis
6,885.639 km
Eccentricity
0.0005
Inclination
97.4142°
RAAN
177.9462°
Arg. of periapsis
319.0326°
True anomaly
41.09076°
Mean anomaly
41.0534°
Eccentric anomaly
41.07208°
Mean motion
3.79863 °/min
Orbital period
94.77 mins
BSTAR
0.00032588
Loading maneuver chart data...
Computing Atmospheric mass density...
Loading historical data...
Loading historical data...
Loading historical data...
Loading historical data...
Loading historical data...
Loading historical data...
Loading historical data...

Documentation

Showing up to 5 results
|